Terminal Aerodrome Forecast
Issued by NWS Sioux Falls, SD

Home | Current Version | Previous Version | Graphics & Text | Print | Product List | Glossary On
Versions: 1 2 3 4 5 6 7 8 9 10 11 12 13 14 15 16 17 18 19 20 21 22 23 24 25 26 27 28 29 30 31 32 33 34
000
FTUS43 KFSD 062215 AAC
TAFSUX
TAF AMD
KSUX 062215Z 0622/0718 36017G24KT 3SM FU BKN035
     FM070200 35011KT 3SM FU SKC
     FM070400 35004KT 2SM FU SKC
     FM071400 02007KT 5SM FU SKC=

USA.gov is the U.S. government's official web portal to all federal, state and local government web resources and services.